Time,TemperatureF,DewpointF,PressureIn,WindDirection,WindDirectionDegrees,WindSpeedMPH,WindSpeedGustMPH,Humidity,HourlyPrecipIn,Conditions,Clouds,dailyrainin,SoftwareType,DateUTC
2013-03-18 00:09:00,28.5,21.9,29.96,ESE,122,7.0,17.0,76,0.00,,---,0.00,VWS V14.01,2013-03-18 05:09:00,
2013-03-18 00:39:00,28.4,21.5,29.95,ESE,117,2.0,13.0,75,0.00,,---,0.00,VWS V14.01,2013-03-18 05:39:00,
2013-03-18 01:09:00,28.0,21.7,29.94,SE,133,5.0,16.0,77,0.00,,---,0.00,VWS V14.01,2013-03-18 06:09:00,
2013-03-18 01:39:00,28.0,21.4,29.92,ESE,110,11.0,18.0,76,0.00,,---,0.00,VWS V14.01,2013-03-18 06:39:00,
2013-03-18 02:09:00,27.8,21.5,29.90,SE,134,5.0,20.0,77,0.00,,---,0.00,VWS V14.01,2013-03-18 07:09:00,
2013-03-18 02:39:00,27.5,21.9,29.90,ENE,67,6.0,14.0,79,0.00,,---,0.00,VWS V14.01,2013-03-18 07:39:00,
2013-03-18 03:09:00,26.7,21.4,29.88,SE,128,5.0,14.0,80,0.00,,---,0.00,VWS V14.01,2013-03-18 08:09:00,
2013-03-18 03:39:00,27.1,22.4,29.86,SE,136,5.0,11.0,82,0.00,,---,0.00,VWS V14.01,2013-03-18 08:39:00,
2013-03-18 04:09:00,27.8,23.0,29.86,SE,146,4.0,12.0,82,0.00,,---,0.00,VWS V14.01,2013-03-18 09:09:00,
2013-03-18 04:39:00,27.9,23.1,29.82,SE,126,2.0,12.0,82,0.00,,---,0.00,VWS V14.01,2013-03-18 09:39:00,
2013-03-18 05:09:00,28.0,23.2,29.80,SE,142,0.0,17.0,82,0.00,,---,0.00,VWS V14.01,2013-03-18 10:09:00,
2013-03-18 05:39:00,28.0,23.5,29.79,ENE,61,2.0,14.0,83,0.00,,---,0.00,VWS V14.01,2013-03-18 10:39:00,
2013-03-18 06:09:00,28.1,23.6,29.79,SE,132,0.0,12.0,83,0.00,,---,0.00,VWS V14.01,2013-03-18 11:09:00,
2013-03-18 06:39:00,27.8,23.6,29.77,NE,40,0.0,14.0,84,0.00,,---,0.00,VWS V14.01,2013-03-18 11:39:00,
2013-03-18 07:09:00,27.8,23.6,29.76,East,82,1.0,13.0,84,0.00,,---,0.00,VWS V14.01,2013-03-18 12:09:00,
2013-03-18 07:39:00,27.9,23.7,29.76,SE,138,4.0,15.0,84,0.00,,---,0.00,VWS V14.01,2013-03-18 12:39:00,
2013-03-18 08:09:00,27.7,24.1,29.73,SSE,148,0.0,11.0,86,0.00,,---,0.00,VWS V14.01,2013-03-18 13:09:00,
2013-03-18 08:39:00,27.4,24.6,29.71,ESE,118,0.0,7.0,89,0.00,,---,0.00,VWS V14.01,2013-03-18 13:39:00,
2013-03-18 09:09:00,27.4,25.1,29.70,SE,128,0.0,8.0,91,0.00,,---,0.00,VWS V14.01,2013-03-18 14:09:00,
2013-03-18 09:39:00,27.6,25.6,29.68,SE,139,1.0,7.0,92,0.00,,---,0.00,VWS V14.01,2013-03-18 14:39:00,
2013-03-18 10:09:00,27.9,25.9,29.66,WSW,239,3.0,12.0,92,0.00,,---,0.00,VWS V14.01,2013-03-18 15:09:00,
2013-03-18 10:39:00,28.7,26.7,29.64,East,94,2.0,10.0,92,0.00,,---,0.00,VWS V14.01,2013-03-18 15:39:00,
2013-03-18 11:09:00,29.2,27.2,29.62,SE,139,5.0,11.0,92,0.01,,---,0.01,VWS V14.01,2013-03-18 16:09:00,
2013-03-18 11:39:00,29.7,27.7,29.62,SE,126,5.0,10.0,92,0.02,,---,0.02,VWS V14.01,2013-03-18 16:39:00,
2013-03-18 12:09:00,30.2,28.4,29.61,ESE,119,4.0,7.0,93,0.03,,---,0.03,VWS V14.01,2013-03-18 17:09:00,
2013-03-18 12:39:00,31.2,29.4,29.58,ESE,121,0.0,12.0,93,0.04,,---,0.05,VWS V14.01,2013-03-18 17:39:00,
2013-03-18 13:09:00,31.5,29.2,29.57,ESE,105,0.0,7.0,91,0.05,,---,0.07,VWS V14.01,2013-03-18 18:09:00,
2013-03-18 13:39:00,31.7,29.1,29.55,SSE,148,2.0,10.0,90,0.06,,---,0.09,VWS V14.01,2013-03-18 18:39:00,
2013-03-18 14:09:00,31.2,28.9,29.54,South,180,2.0,6.0,91,0.05,,---,0.10,VWS V14.01,2013-03-18 19:09:00,
2013-03-18 14:39:00,30.9,28.6,29.53,SSW,205,0.0,6.0,91,0.04,,---,0.11,VWS V14.01,2013-03-18 19:39:00,
2013-03-18 15:09:00,31.3,29.2,29.52,SSW,196,0.0,6.0,92,0.03,,---,0.12,VWS V14.01,2013-03-18 20:09:00,
2013-03-18 15:39:00,31.2,29.4,29.52,WSW,247,2.0,5.0,93,0.03,,---,0.13,VWS V14.01,2013-03-18 20:39:00,
2013-03-18 16:09:00,31.4,29.4,29.52,WNW,283,4.0,9.0,92,0.03,,---,0.14,VWS V14.01,2013-03-18 21:09:00,
2013-03-18 16:39:00,31.2,28.9,29.52,WNW,301,3.0,12.0,91,0.02,,---,0.14,VWS V14.01,2013-03-18 21:39:00,
2013-03-18 17:09:00,30.9,28.6,29.52,NW,326,5.0,13.0,91,0.02,,---,0.15,VWS V14.01,2013-03-18 22:09:00,
2013-03-18 17:39:00,30.8,28.5,29.52,West,271,1.0,10.0,91,0.01,,---,0.15,VWS V14.01,2013-03-18 22:39:00,
2013-03-18 18:09:00,31.1,28.5,29.52,West,267,5.0,12.0,90,0.01,,---,0.15,VWS V14.01,2013-03-18 23:09:00,
2013-03-18 18:39:00,31.3,28.7,29.52,WSW,248,6.0,11.0,90,0.00,,---,0.15,VWS V14.01,2013-03-18 23:39:00,
2013-03-18 19:09:00,31.2,28.9,29.53,West,275,2.0,15.0,91,0.00,,---,0.15,VWS V14.01,2013-03-19 00:09:00,
2013-03-18 19:39:00,27.4,24.6,29.56,WNW,294,13.0,20.0,89,0.00,,---,0.15,VWS V14.01,2013-03-19 00:39:00,
2013-03-18 20:09:00,24.7,21.1,29.58,WNW,295,13.0,28.0,86,0.00,,---,0.15,VWS V14.01,2013-03-19 01:09:00,
2013-03-18 20:39:00,23.6,18.6,29.61,NNW,339,13.0,22.0,81,0.00,,---,0.15,VWS V14.01,2013-03-19 01:39:00,
2013-03-18 21:09:00,23.0,17.5,29.62,WNW,286,10.0,23.0,79,0.00,,---,0.15,VWS V14.01,2013-03-19 02:09:00,
2013-03-18 21:39:00,21.6,15.2,29.62,NW,310,16.0,26.0,76,0.00,,---,0.15,VWS V14.01,2013-03-19 02:39:00,
2013-03-18 22:09:00,20.6,13.9,29.64,NW,314,10.0,24.0,75,0.00,,---,0.15,VWS V14.01,2013-03-19 03:09:00,
2013-03-18 22:39:00,19.9,13.3,29.65,NNW,344,21.0,29.0,75,0.00,,---,0.15,VWS V14.01,2013-03-19 03:39:00,
2013-03-18 23:09:00,18.7,11.5,29.65,NW,318,13.0,27.0,73,0.00,,---,0.15,VWS V14.01,2013-03-19 04:09:00,
2013-03-18 23:39:00,17.8,11.2,29.65,WNW,294,12.0,24.0,75,0.00,,---,0.15,VWS V14.01,2013-03-19 04:39:00,